Regional Weather Roundup
Issued by NWS

Current Version | Previous Version | Text Only | Print | Product List | Glossary On
Versions: 1 2 3 4 5 6 7 8 9 10 11 12 13 14 15 16 17 18 19 20 21 22 23 24 25 26 27 28 29 30 31 32 33 34 35 36 37 38 39 40 41 42 43 44 45 46 47 48 49 50
000
ASUS44 KFWD 271415
RWRTX
NORTH TEXAS HOURLY WEATHER ROUNDUP
NATIONAL WEATHER SERVICE FORT WORTH TX
900 AM CDT SAT MAY 27 2017

NOTE: "FAIR" INDICATES FEW OR NO CLOUDS BELOW 12,000 FEET WITH NO
SIGNIFICANT WEATHER AND/OR OBSTRUCTIONS TO VISIBILITY.

TXZ118-119-271500-
DALLAS/FORT WORTH METROPLEX

CITY           SKY/WX    TMP DP  RH WIND       PRES   REMARKS
DFW AIRPORT    PTSUNNY   84  76  76 S24       29.82S HX  93
DALLAS LOVE    PTSUNNY   82  74  76 S16       29.84S
FTW MEACHAM    PTSUNNY   85  76  74 S18       29.83R HX  94
DAL-EXECUTIVE  CLOUDY    81  76  84 S12G22    29.84F
FTW-ALLIANCE   PTSUNNY   83  75  77 S14G23    29.82S HX  90
FTW-NAS-JRB    PTSUNNY   83  75  77 S16       29.84R HX  90
FTW-SPINKS     PTSUNNY   81  73  78 S16G26    29.86S
ARLINGTON      CLOUDY    81  74  79 S17G23    29.84S
GRAND PRAIRIE  CLOUDY    81  73  78 S16G22    29.86S
ADDISON        CLOUDY    81  73  78 S13G20    29.85S
MESQUITE       PTSUNNY   79  75  89 S14G20    29.86S
LANCASTER      CLOUDY    80  74  84 S13       29.87S
$$

TXZ091>094-102>105-117-120-121-131>134-271500-
NORTH CENTRAL TEXAS

CITY           SKY/WX    TMP DP  RH WIND       PRES   REMARKS
SHRMAN/DENISON CLOUDY    79  74  85 CALM      29.85R
GAINESVILLE    CLOUDY    80  73  81 SW12G21   29.85R
BOWIE          CLOUDY    80  76  89 S13G21    29.84R
BRIDGEPORT     PTSUNNY   82  73  75 S13       29.84R
DECATUR        CLOUDY    80  74  83 S13G18    29.83S
DENTON         PTSUNNY   80  75  84 S15G23    29.83R
MCKINNEY       CLOUDY    80  76  87 S15       29.84S
BONHAM         CLOUDY    79  73  83 S12G17    29.86S
GREENVILLE     CLOUDY    81  75  83 S12       29.88R
ROCKWALL       CLOUDY    80  76  89 S21G29    29.86S
TERRELL        CLOUDY    79  74  84 S13       29.87S
WAXAHACHIE     CLOUDY    78  76  94 S10       29.88S
CLEBURNE       CLOUDY    79  79 100 S17       29.88R
GRANBURY       PTSUNNY   83  74  73 S14       29.85S HX  90
$$

TXZ083>090-098>101-113>116-127>130-139>142-154-155-271500-
WESTERN NORTH TEXAS

CITY           SKY/WX    TMP DP  RH WIND       PRES   REMARKS
WICHITA FALLS  SUNNY     80  72  76 S17       29.78S
WF-KICKAPOO    SUNNY     80  72  75 S16       29.81F
VERNON         SUNNY     78  55  44 W9        29.79S
ABILENE        MOSUNNY   79  73  82 SW15      29.89R
ABILENE-DYESS  MOSUNNY   79  72  78 S16G25    29.85R
GRAHAM         PTSUNNY   82  75  78 S7        29.82R
BRECKENRIDGE   MOSUNNY   83  73  70 S14G24    29.84R HAZE
CISCO          SUNNY     81  73  78 S14G21    29.86R
EASTLAND       PTSUNNY   81  75  81 S13G22    29.85S
RANGER         SUNNY     79  74  85 S16       29.86R
MINERAL WELLS  PTSUNNY   82  74  76 S15       29.82R
STEPHENVILLE   CLOUDY    80  73  81 S7G18     29.89R
COMANCHE       CLOUDY    80  76  87 S12       29.88R
COLEMAN        PTSUNNY   81  73  76 S10       29.89S
$$

TXZ143>147-156>162-174-175-271500-
CENTRAL TEXAS

CITY           SKY/WX    TMP DP  RH WIND       PRES   REMARKS
WACO           CLOUDY    78  75  90 S12       29.88S FOG
WACO-TSTC      CLOUDY    77  75  94 S6        29.89R FOG
WACO-MCGREGOR  PTSUNNY   79  75  89 S13       29.90R
HILLSBORO      CLOUDY    79  76  89 S18       29.88S
CORSICANA      CLOUDY    79  76  90 S9        29.91R FOG
MEXIA          CLOUDY    78  75  91 S10       29.89S
HEARNE         CLOUDY    79  78  96 SE8       29.92S FOG
CAMERON        CLOUDY    80  75  86 S6        29.91R HAZE
TEMPLE         CLOUDY    79  75  89 S12       29.91R FOG
KILLEEN        CLOUDY    75  75 100 SE9       29.90R FOG
KILLEEN-SKYLRK CLOUDY    77  75  93 S9        29.90R FOG
FORT HOOD      CLOUDY    75  73  94 S7        29.87R
HAMILTON       CLOUDY    81  77  88 S15       29.90S
LAMPASAS       CLOUDY    78  76  94 S6        29.89S
$$

TXZ095>097-106>112-122>126-135>138-148>153-164>167-271500-
EAST TEXAS

CITY           SKY/WX    TMP DP  RH WIND       PRES   REMARKS
PARIS          CLOUDY    79  72  78 S14       29.88R
SULPHUR SPRNGS CLOUDY    80  74  81 S14G21    29.90R
MOUNT PLEASANT PTSUNNY   80  74  81 S13       29.91R
GILMER         CLOUDY    78  74  86 S9        29.91S
MINEOLA        CLOUDY    81  73  78 S9        29.89S
TYLER          CLOUDY    79  76  90 S14       29.90S FOG
LONGVIEW       PTSUNNY   77  77 100 S5        29.91S FOG
MARSHALL       CLOUDY    76  72  89 S5        29.96R
ATHENS         CLOUDY    77  77 100 S9        29.89S
PALESTINE      CLOUDY    80  76  87 S7        29.93R FOG
JACKSONVILLE   CLOUDY    78  75  93 S7        29.95S FOG
HENDERSON      CLOUDY    78  75  90 S9        29.94R
CENTER         CLOUDY    83  80  90 S8        29.96R HX  94
NACOGDOCHES    CLOUDY    81  73  78 S10       29.92R
LUFKIN         PTSUNNY   80  75  84 S10       29.95R
$$

SUPPLEMENTAL OBSERVATIONS (NWS FORT WORTH AREA)

CITY           SKY/WX    TMP DP  RH WIND       PRES   REMARKS
DENISON DAM      N/A     79  73  83 S6          N/A
CADDO GRASSLND   N/A     81  73  78 S12         N/A
PAT MAYSE LAKE   N/A     79  77  94 SE12        N/A
GREENVILLE       N/A     79  73  83 S12         N/A
CEDAR HILL       N/A     81  73  78 S10         N/A
LBJ GRASSLAND    N/A     81  75  83 S10         N/A
POSSUM KINGDOM   N/A     82  73  74 S12         N/A
GRANBURY         N/A     82  73  74 S15         N/A
COMANCHE         N/A     82  75  78 S14         N/A
MCGREGOR         N/A     79  75  89 S8          N/A
TEMPLE           N/A     79  73  83 S13         N/A
LAKE LIMESTONE   N/A     81  75  83 S10         N/A
ATHENS           N/A     81  73  78 S9          N/A
$$

SUPPLEMENTAL OBSERVATIONS (NWS NORMAN AREA)

CITY           SKY/WX    TMP DP  RH WIND       PRES   REMARKS
GOODLETT         N/A     80  44  28 SW14      29.79R
ODELL            N/A     81  57  43 SW13      29.79S
CROWELL          N/A     82  57  42 SW13      29.80S
KNOX CITY        N/A     82  65  57 SW14      29.83R
SEYMOUR          N/A     83  67  58 S18G26    29.80S
MILLERS CREEK    N/A     81  70  69 SW14        N/A
$$

SUPPLEMENTAL OBSERVATIONS (NWS SAN ANGELO AREA)

CITY           SKY/WX    TMP DP  RH WIND       PRES   REMARKS
WEINERT          N/A     84  69  62 SW17      29.83S
HASKELL          N/A     80  67  63 S16       29.84R
THROCKMORTON     N/A     83  73  72 S8        29.84S
STAMFORD         N/A     82  72  72 S16       29.86R
CLYDE            N/A     78  73  84 SW16      29.90R
HAMBY            N/A     79  72  78 SW15        N/A
IVIE RESERVOIR   N/A     82  73  74 S6          N/A
COLORADO BEND    N/A     75  72  88 SW7         N/A
$$

SUPPLEMENTAL OBSERVATIONS (NWS SHREVEPORT AREA)

CITY           SKY/WX    TMP DP  RH WIND       PRES   REMARKS
CLARKSVILLE      N/A     79  73  83 S12         N/A
TEXARKANA        N/A     79  75  89 S3          N/A
LINDEN           N/A     81  75  83 S5          N/A
CADDO LAKE       N/A     81  75  83 S3          N/A
GILMER           N/A     81  75  83 S5          N/A
HENDERSON        N/A     79  75  89 S9          N/A
LUFKIN           N/A     82  77  83 MISG        N/A  HX  91
N SABINE NF      N/A     79  75  89 MISG        N/A
S SABINE NF      N/A     81  75  83 S2          N/A
$$

SUPPLEMENTAL OBSERVATIONS ARE A COLLECTION OF AUTOMATED INSTRUMENTS
THAT ARE MAINTAINED BY A VARIETY OF FEDERAL AND STATE AGENCIES.
CERTAIN ELEMENTS...SUCH AS HUMIDITY VALUES AND SUSTAINED WIND
SPEEDS...MAY BE APPROXIMATED.





USA.gov is the U.S. government's official web portal to all federal, state and local government web resources and services.